Total_Precipitation_Accumulation
0.00 0.00 0.01 0.01 0.01 0.02 0.02 0.04 0.09 0.15 0.16 0.24 0.37 0.50 0.72 0.88 1.10 1.26 1.29 1.25 1.33 1.55 1.86 2.16 2.53 2.88 3.09 3.25 3.35 3.65 3.85 3.55 3.06 2.62 2.10 1.86 1.76 1.56 1.37 1.23 1.11 1.11 1.04 1.11
0.01 0.02 0.02 0.01 0.01 0.02 0.03 0.06 0.11 0.15 0.15 0.20 0.35 0.64 0.82 0.90 0.92 0.99 1.10 1.06 1.09 1.29 1.39 1.48 1.70 2.03 2.12 2.33 2.65 3.01 3.25 3.09 2.55 2.29 2.04 1.87 1.76 1.63 1.57 1.42 1.27 1.11 1.06 1.07
0.00 0.01 0.01 0.01 0.01 0.02 0.05 0.05 0.06 0.11 0.11 0.20 0.36 0.88 1.00 0.89 0.79 0.69 0.81 0.86 0.83 0.92 1.02 1.02 1.10 1.27 1.57 2.05 2.20 2.25 2.50 2.70 2.43 2.28 2.19 2.07 1.93 1.71 1.72 1.61 1.42 1.11 0.99 1.01
0.01 0.01 0.01 0.01 0.02 0.02 0.04 0.04 0.02 0.03 0.07 0.32 0.44 0.89 1.00 0.88 0.88 0.69 0.65 0.64 0.55 0.53 0.69 0.83 0.85 0.91 1.10 1.43 1.71 1.96 2.20 2.37 2.30 2.17 1.96 1.78 1.59 1.46 1.42 1.42 1.41 1.29 1.17 1.03
0.01 0.01 0.01 0.02 0.02 0.02 0.01 0.01 0.01 0.03 0.10 0.28 0.41 0.74 0.97 0.80 0.94 0.70 0.43 0.32 0.28 0.28 0.38 0.56 0.67 0.76 0.79 0.98 1.37 1.79 2.12 2.34 2.24 1.94 1.76 1.73 1.63 1.56 1.49 1.40 1.48 1.36 1.30 1.12
0.01 0.01 0.01 0.01 0.01 0.01 0.01 0.02 0.08 0.17 0.30 0.62 0.62 0.62 0.90 0.69 0.51 0.36 0.26 0.19 0.20 0.22 0.26 0.36 0.42 0.52 0.66 0.79 1.02 1.30 1.62 1.90 1.93 1.77 1.67 1.69 1.69 1.66 1.53 1.33 1.28 1.18 1.16 1.14
0.06 0.05 0.03 0.02 0.01 0.02 0.02 0.03 0.16 0.37 0.64 0.84 0.49 0.63 0.98 0.56 0.37 0.22 0.18 0.17 0.17 0.16 0.21 0.31 0.37 0.36 0.49 0.57 0.66 0.82 1.12 1.35 1.51 1.58 1.59 1.56 1.67 1.67 1.50 1.35 1.26 1.22 1.06 1.01
0.09 0.15 0.06 0.02 0.01 0.01 0.02 0.02 0.06 0.13 0.25 0.41 0.48 1.09 0.93 0.39 0.24 0.20 0.16 0.17 0.16 0.15 0.16 0.26 0.36 0.36 0.37 0.40 0.51 0.65 0.87 1.05 1.19 1.28 1.38 1.42 1.43 1.34 1.33 1.41 1.31 1.22 1.16 1.10
0.03 0.04 0.03 0.02 0.01 0.02 0.02 0.02 0.03 0.04 0.06 0.25 0.59 0.77 0.49 0.21 0.19 0.21 0.18 0.15 0.15 0.20 0.25 0.28 0.33 0.35 0.28 0.31 0.39 0.46 0.64 0.79 0.89 1.02 1.18 1.20 1.23 1.16 1.16 1.22 1.20 1.16 1.22 1.20
0.02 0.01 0.02 0.02 0.02 0.03 0.03 0.02 0.02 0.02 0.05 0.18 0.43 0.68 0.69 0.39 0.29 0.26 0.22 0.18 0.16 0.24 0.37 0.37 0.30 0.34 0.30 0.29 0.34 0.40 0.49 0.63 0.73 0.85 0.93 0.94 1.11 1.12 1.21 1.19 1.12 1.05 1.03 1.04
0.02 0.01 0.01 0.02 0.02 0.04 0.04 0.03 0.03 0.03 0.04 0.09 0.29 0.44 0.46 0.36 0.33 0.25 0.20 0.22 0.28 0.28 0.40 0.41 0.35 0.32 0.27 0.26 0.28 0.31 0.43 0.54 0.63 0.74 0.81 0.89 0.94 1.00 1.06 1.11 1.11 1.08 1.03 1.02
0.02 0.01 0.01 0.03 0.04 0.03 0.05 0.06 0.06 0.05 0.05 0.06 0.12 0.20 0.22 0.26 0.32 0.27 0.26 0.29 0.29 0.24 0.25 0.32 0.33 0.31 0.23 0.25 0.26 0.26 0.32 0.39 0.47 0.65 0.80 0.84 0.93 0.99 1.00 1.03 1.19 1.20 1.17 1.15
0.02 0.01 0.02 0.06 0.12 0.09 0.06 0.06 0.07 0.07 0.06 0.05 0.10 0.19 0.19 0.21 0.30 0.28 0.30 0.34 0.33 0.26 0.23 0.35 0.41 0.36 0.26 0.25 0.28 0.30 0.33 0.38 0.43 0.55 0.69 0.80 0.88 0.98 1.08 1.19 1.31 1.42 1.39 1.37
0.02 0.01 0.01 0.06 0.14 0.20 0.15 0.08 0.07 0.06 0.05 0.05 0.07 0.14 0.19 0.27 0.31 0.28 0.30 0.35 0.34 0.32 0.24 0.30 0.45 0.42 0.30 0.25 0.30 0.32 0.38 0.44 0.53 0.68 0.81 0.87 1.03 1.18 1.27 1.30 1.42 1.48 1.51 1.55
0.02 0.01 0.01 0.03 0.06 0.11 0.11 0.08 0.07 0.06 0.05 0.05 0.06 0.11 0.20 0.30 0.34 0.33 0.33 0.38 0.39 0.33 0.32 0.42 0.52 0.54 0.47 0.43 0.42 0.44 0.54 0.63 0.77 0.96 1.03 1.05 1.15 1.28 1.45 1.63 1.69 1.72 1.75 1.75
0.04 0.03 0.04 0.04 0.06 0.08 0.07 0.06 0.06 0.06 0.05 0.05 0.07 0.11 0.17 0.27 0.30 0.26 0.27 0.29 0.34 0.38 0.38 0.44 0.58 0.66 0.68 0.66 0.65 0.70 0.81 0.95 1.14 1.38 1.47 1.56 1.65 1.74 1.84 1.90 1.92 2.00 2.02 1.99
0.13 0.12 0.11 0.09 0.09 0.10 0.08 0.07 0.07 0.07 0.07 0.07 0.11 0.16 0.22 0.29 0.30 0.37 0.37 0.36 0.46 0.51 0.53 0.54 0.66 0.74 0.82 0.81 0.79 0.89 0.98 1.18 1.37 1.49 1.55 1.66 1.76 1.84 1.90 1.98 2.02 1.97 1.95 1.89
0.33 0.28 0.20 0.16 0.18 0.19 0.11 0.13 0.14 0.14 0.17 0.19 0.19 0.23 0.29 0.37 0.38 0.42 0.45 0.42 0.44 0.54 0.66 0.66 0.73 0.78 0.79 0.85 0.93 1.01 1.06 1.14 1.36 1.47 1.50 1.51 1.56 1.63 1.75 1.84 1.82 1.75 1.72 1.68
0.41 0.46 0.39 0.28 0.25 0.26 0.25 0.23 0.23 0.27 0.34 0.29 0.32 0.38 0.40 0.41 0.42 0.43 0.48 0.61 0.59 0.56 0.62 0.67 0.76 0.77 0.82 0.85 0.91 0.91 0.98 1.07 1.19 1.27 1.32 1.32 1.41 1.50 1.58 1.60 1.60 1.62 1.59 1.45
0.32 0.35 0.40 0.40 0.40 0.39 0.39 0.42 0.33 0.35 0.59 0.58 0.55 0.53 0.49 0.53 0.63 0.58 0.46 0.49 0.52 0.53 0.56 0.64 0.77 0.79 0.81 0.86 0.89 0.91 0.97 1.08 1.20 1.32 1.40 1.44 1.48 1.54 1.53 1.53 1.53 1.49 1.44 1.38
0.44 0.46 0.44 0.44 0.47 0.50 0.46 0.40 0.39 0.65 0.88 0.86 0.88 0.83 0.68 0.70 0.69 0.60 0.48 0.45 0.48 0.54 0.58 0.63 0.75 0.87 0.88 0.90 0.98 1.05 1.09 1.13 1.20 1.30 1.38 1.39 1.40 1.41 1.43 1.48 1.41 1.42 1.42 1.38
0.60 0.62 0.60 0.63 0.79 0.92 0.69 0.58 0.76 0.91 0.70 0.72 0.85 1.01 1.01 0.91 0.73 0.60 0.50 0.45 0.44 0.43 0.48 0.63 0.74 0.84 0.93 1.03 1.15 1.20 1.16 1.17 1.24 1.36 1.41 1.36 1.34 1.33 1.32 1.30 1.25 1.25 1.25 1.21
0.68 0.76 0.86 0.91 1.05 0.97 0.79 0.78 0.76 0.85 0.96 0.98 1.05 1.17 1.15 1.04 0.82 0.67 0.57 0.52 0.47 0.45 0.47 0.54 0.65 0.80 0.89 1.03 1.16 1.25 1.29 1.35 1.36 1.42 1.47 1.46 1.41 1.36 1.35 1.36 1.36 1.31 1.29 1.27
0.68 0.57 0.77 1.07 1.21 1.04 0.86 0.87 0.87 0.95 1.10 1.14 1.08 1.06 1.00 0.93 0.83 0.78 0.74 0.66 0.63 0.62 0.61 0.67 0.75 0.81 0.88 0.97 1.07 1.17 1.26 1.33 1.44 1.45 1.44 1.44 1.42 1.39 1.37 1.40 1.39 1.36 1.32 1.26
0.72 0.76 0.92 1.24 1.41 1.34 1.20 1.11 1.04 1.05 1.02 1.10 1.03 1.03 0.97 0.87 0.82 0.82 0.87 0.89 0.84 0.79 0.79 0.82 0.86 0.89 0.92 0.98 1.04 1.15 1.23 1.26 1.34 1.39 1.37 1.33 1.28 1.27 1.28 1.28 1.27 1.21 1.16 1.12
0.79 0.92 1.20 1.52 1.53 1.65 1.56 1.28 1.12 1.18 1.13 1.09 1.02 1.04 1.06 0.97 0.88 0.88 0.95 0.98 0.96 0.90 0.86 0.84 0.87 0.88 0.89 0.96 1.05 1.10 1.22 1.35 1.41 1.36 1.27 1.21 1.11 1.09 1.08 1.08 1.11 1.17 1.04 1.02